Regional Weather Roundup
Issued by NWS Cleveland, OH

Home | Current Version | Previous Version | Graphics & Text | Print | Product List | Glossary Off
Versions: 1 2 3 4 5 6 7 8 9 10 11 12 13 14 15 16 17 18 19 20 21 22 23 24 25 26 27 28 29 30 31 32 33 34 35 36 37 38 39 40 41 42 43 44 45 46 47 48 49 50

000
ASUS41 KCLE 282010
RWRCLE
OHIO REGIONAL WEATHER ROUNDUP
NATIONAL WEATHER SERVICE CLEVELAND, OH
400 PM EDT THU MAY 28 2015

NOTE: "FAIR" INDICATES FEW OR NO CLOUDS BELOW 12,000 FEET WITH NO
SIGNIFICANT WEATHER AND/OR OBSTRUCTIONS TO VISIBILITY.

OHZ001>008-015>018-024>027-034-035-043-044-282100-
   NORTHWEST OHIO

CITY           SKY/WX    TMP DP  RH WIND       PRES   REMARKS
DEFIANCE       SUNNY     80  58  46 E13       30.20F
FINDLAY        SUNNY     81  56  42 E8G17     30.19F
TOLEDO EXPRESS SUNNY     79  52  38 E8G20     30.21F
TOLEDO EXEC    SUNNY     77  55  46 E7        30.23F
LIMA           SUNNY     81  59  47 E8        30.19F
$$

OHZ009>014-019>023-028>033-038-089-282100-
   NORTHEAST OHIO

CITY           SKY/WX    TMP DP  RH WIND       PRES   REMARKS
CLE-HOPKINS    SUNNY     76  56  49 N12       30.25F
CLE-LAKEFRONT  SUNNY     67  57  70 N9        30.24F
CUY CO. ARPT   SUNNY     79  54  41 NE9       30.25F
LORAIN-ELYRIA  SUNNY     79  58  48 E13       30.23F
ASHTABULA      MOSUNNY   76  58  53 CALM      30.27F
AKRON-CANTON   MOSUNNY   78  55  44 VRB5      30.24F
WOOSTER        MOSUNNY   76  59  55 E9        30.24F
MANSFIELD      MOSUNNY   78  57  48 SE8       30.24F
YOUNGSTOWN     MOSUNNY   78  54  43 NE5       30.26F
$$

OHZ042-051>053-060>062-070>072-077>081-282100-
  SOUTHWEST OHIO

CITY           SKY/WX    TMP DP  RH WIND       PRES   REMARKS
CINC-COVINGTON MOSUNNY   81  62  52 SE6       30.19F
CINC-LUNKEN    PTSUNNY   80  66  62 VRB5      30.18F
HAMILTON       MOSUNNY   84  64  50 CALM      30.18F
DAYTON         MOSUNNY   81  61  50 S9        30.19F
WRIGHT-PAT AFB SUNNY     82  62  50 S6        30.17F
DAYTON GENERAL MOSUNNY   81  61  50 VRB5      30.18F
WILMINGTON     MOSUNNY   79  59  50 S8        30.18F
$$

OHZ036-037-039>041-045>050-054>059-063>069-073>076-082>088-282100-
  CENTRAL AND SOUTHEAST OHIO

CITY           SKY/WX    TMP DP  RH WIND       PRES   REMARKS
COLUMBUS       MOSUNNY   82  62  50 SE8       30.19F
OSU AIRPORT    PTSUNNY   78  61  55 E9        30.20F
BOLTON FIELD   MOSUNNY   82  61  47 SE6       30.20F
RICKENBACK AFB MOSUNNY   80  63  55 E3        30.19F
NEWARK         SUNNY     82  60  47 E6        30.20F
MARION         SUNNY     80  57  45 E8        30.21F
LANCASTER      SUNNY     82  62  50 E8        30.20F
ZANESVILLE     NOT AVBL
NEW PHILLY     MOSUNNY   80  59  48 CALM      30.23F
$$



USA.gov is the U.S. government's official web portal to all federal, state and local government web resources and services.